date:2026-07-27T18:45:02+00:00
validtle:1
satid:56745
launchyear:2023
epoch:26208.27412919
epochday:208
tleage:0
tleclassification:U
active:1
name:SNIPE
meananomly:177.2003
meanmotion:15.4881
rightascension:0.0000
declination:0.0000
semimajoraxis:6798.3307740612
altitudeatperigee:417
altitudeatapogee:423
inclination:97.5203
eccentricity:0.0004378
argumentofperigree:182.9223
nickname:SNIPE
idesg:23072C  
cosparid:2023-072C
altkm:426.29314211443
velkms:7.6539477417011
velkmh:27554
onumepoch:17644
onumnow:273280.76
otype:1
otypedesc:Low Earth Orbit (LEO)
status:1
timestamp:2026-07-27T06:34:45+00:00
nowjuliandate:2461249.2812829
nowepochdate:26208.7812731481
TLE:
SNIPE 2
1 56745U 23072C   26208.27412919  .00032725  00000+0  60862-3 0  9997
2 56745  97.5203  58.9246 0004378 182.9223 177.2003 15.48814904176444